Flag for Canada Weather past 2 weeks in Rankin Inlet, Nunavut Territory, Canada

Now
32 °F

Partly sunny.


Feels Like: 21 °F
Forecast: N/A
Wind: 17 mph from Northwest

Location: Rankin Inlet

Current Time: Sep 21, 2014 at 4:16:43 PM

Latest Report: Sep 21, 2014 at 3:00 PM


Visibility: 15 mi

Pressure: 29.79 "Hg

Humidity: 69%

Dew point: 23 °F

Location of Rankin InletLocation

Historic Weather in Rankin Inlet — Graph

°F

Rankin Inlet temperature yesterday

Maximum temperature yesterday: 39 °F (at 1:00 PM)
Minimum temperature yesterday: 36 °F (at 12:00 AM)
Average temperature yesterday: 37 °F

Past Weeks' High & Low Weather Summary

 TemperatureHumidityPressure
High50 °F (Sep 6, 3:00 PM)100% (Sep 7, 9:00 PM)30.07 "Hg (Sep 7, 9:00 PM)
Low27 °F (Sep 15, 12:00 AM)43% (Sep 6, 3:00 PM)29.25 "Hg (Sep 19, 5:00 AM)
Average36 °F76%29.80 "Hg
* Reported Sep 6 3:00 PM — Sep 21 3:00 PM, Rankin Inlet, Weather by CustomWeather, © 2014

Note: Actual official high and low records may vary slightly from our data, if they occured in-between our weather recording intervals... More about our weather records

Advertising

Rankin Inlet weather history for previous 24 hours

 ConditionsComfort  
Time TempWeatherWind HumidityBarometerVisibility
3:00 PM
Sep 21
32 °FPartly sunny.17 mph69%29.79 "Hg15 mi
2:00 PM34 °FPartly sunny.17 mph65%29.79 "Hg15 mi
1:00 PM30 °FBroken clouds.20 mph75%29.79 "Hg15 mi
12:00 PM30 °FPartly sunny.21 mph75%29.80 "Hg15 mi
11:49 AM28 °FPartly sunny.21 mph80%29.79 "Hg15 mi
11:00 AM28 °FPartly sunny.21 mph86%29.80 "Hg15 mi
10:00 AM30 °FLow clouds.23 mph80%29.79 "Hg15 mi
9:00 AM30 °FPartly sunny.23 mph86%29.78 "Hg15 mi
8:00 AM32 °FLow clouds.21 mph87%29.77 "Hg15 mi
7:00 AM36 °FOvercast.16 mph87%29.76 "Hg15 mi
6:00 AM37 °FLight rain. Overcast.20 mph87%29.75 "Hg10 mi
5:00 AM39 °FLight rain. Overcast.22 mph87%29.73 "Hg12 mi
4:00 AM39 °FLight rain. Overcast.24 mph81%29.74 "Hg10 mi
3:00 AM39 °FPartly cloudy.25 mph75%29.76 "Hg15 mi
2:00 AM39 °FPassing clouds.21 mph81%29.79 "Hg15 mi
1:00 AM39 °FPassing clouds.18 mph81%29.80 "Hg15 mi
12:00 AM39 °FPassing clouds.16 mph81%29.82 "Hg15 mi
11:00 PM
Sep 20
39 °FPassing clouds.20 mph87%29.83 "Hg15 mi
10:00 PM37 °FPassing clouds.17 mph93%29.84 "Hg15 mi
9:00 PM37 °FPassing clouds.17 mph93%29.85 "Hg15 mi
8:00 PM37 °FPassing clouds.15 mph87%29.86 "Hg15 mi
7:00 PM39 °FPartly sunny.12 mph81%29.86 "Hg15 mi
6:00 PM39 °FPartly sunny.9 mph81%29.85 "Hg15 mi
5:00 PM39 °FPartly sunny.8 mph81%29.85 "Hg15 mi
4:00 PM39 °FOvercast.8 mph75%29.84 "Hg15 mi
Weather by CustomWeather, © 2014

See weather overviewHow to use our weather pages